Regional Weather Roundup
Issued by NWS

Home | Current Version | Previous Version | Graphics & Text | Print | Product List | Glossary On
Versions: 1 2 3 4 5 6 7 8 9 10 11 12 13 14 15 16 17 18 19 20 21 22 23 24 25 26 27 28 29 30 31 32 33 34 35 36 37 38 39 40 41 42 43 44 45 46 47 48 49 50
000
ASUS43 KOAX 012110
RWRNE

WEATHER ROUNDUP FOR NEBRASKA
NATIONAL WEATHER SERVICE OMAHA NE
400 PM CDT FRI AUG 01 2014

NOTES: SATELLITE DATA IS BEING USED TO AUGMENT CLOUD COVER ABOVE
       12000 FEET.
       "FAIR" INDICATES FEW OR NO CLOUDS BELOW 12,000 FEET WITH NO
       SIGNIFICANT WEATHER AND/OR OBSTRUCTIONS TO VISIBILITY.

  * THESE STATIONS DO NOT REPORT WEATHER SUCH AS RAIN...SNOW OR FOG.

NEZ001>004-019>022-054>056-012200-
NEBRASKA PANHANDLE

CITY           SKY/WX    TMP DP  RH WIND       PRES   REMARKS
SCOTTSBLUFF    SUNNY     90  40  17 E10       30.16F
ALLIANCE       MOSUNNY   88  37  16 S8        30.15F
CHADRON        MOSUNNY   94  37  13 W9        30.08F
KIMBALL        MOSUNNY   83  40  22 SE5       30.22S
SIDNEY         MOSUNNY   90  40  17 SW8       30.19F
$$

NEZ057>060-069>072-079>082-012200-
SOUTHWEST NEBRASKA

CITY           SKY/WX    TMP DP  RH WIND       PRES   REMARKS
NORTH PLATTE   LGT RAIN  83  54  36 SW3       30.11F
IMPERIAL       SUNNY     90  42  18 NE9       30.14F
LEXINGTON      SUNNY     88  56  33 E6        30.11F
MCCOOK         MOSUNNY   89  51  27 MISG      30.11F
OGALLALA       SUNNY     88  44  21 S3        30.13F
$$

NEZ005>010-023>029-035>040-094-012200-
NORTH CENTRAL NEBRASKA

CITY           SKY/WX    TMP DP  RH WIND       PRES   REMARKS
VALENTINE      SUNNY     93  48  21 MISG      30.07F
AINSWORTH      SUNNY     87  53  30 E7        30.10S
BROKEN BOW     MOSUNNY   87  60  40 SE9       30.11F
O`NEILL        SUNNY     84  56  38 CALM      30.11F
ORD            SUNNY     84  55  36 VRB5      30.10F
THEDFORD       MOSUNNY   92  51  24 NE7       30.11F
$$

NEZ041-046>049-061>064-073>077-083>087-012200-
SOUTH CENTRAL NEBRASKA

CITY           SKY/WX    TMP DP  RH WIND       PRES   REMARKS
GRAND ISLAND   SUNNY     85  57  38 NE10      30.11F
AURORA         SUNNY     82  60  47 NE7       30.11S
HASTINGS       SUNNY     83  56  39 NE13      30.11F
HEBRON         MOSUNNY   83  58  41 N10G16    30.08S
HOLDREGE       SUNNY     85  55  36 NE8       30.12F
KEARNEY *      SUNNY     86  57  37 N8        30.11F
YORK           MOSUNNY   81  63  54 NE10      30.10F
$$

NEZ011>018-030>034-042>045-012200-
NORTHEAST NEBRASKA

CITY           SKY/WX    TMP DP  RH WIND       PRES   REMARKS
NORFOLK        MOSUNNY   83  54  36 NE8       30.09F
ALBION         SUNNY     81  51  35 E6        30.11F
BLAIR          MOSUNNY   81  60  48 E6        30.09F
COLUMBUS *     MOSUNNY   82  63  51 E9        30.10F
FREMONT        PTSUNNY   82  60  46 E5        30.10F
TEKAMAH        MOSUNNY   84  58  40 CALM      30.08F
WAYNE          SUNNY     83  62  49 SE6       30.11S
$$

NEZ050>053-065>068-078-088>093-012200-
SOUTHEAST NEBRASKA

CITY           SKY/WX    TMP DP  RH WIND       PRES   REMARKS
LINCOLN        MOSUNNY   84  60  44 E9        30.08F
OMAHA EPPLEY   MOSUNNY   84  58  40 NE8       30.08F
BEATRICE       MOSUNNY   84  63  50 NE5       30.06S
FALLS CITY     PTSUNNY   82  63  52 E8        30.06S
NEBRASKA CITY  SUNNY     81  62  52 E8        30.08S
PLATTSMOUTH    PTSUNNY   81  62  52 NE7       30.09S
$$

NEZ044-045-051>053-067-012200-
OMAHA AREA

CITY           SKY/WX    TMP DP  RH WIND       PRES   REMARKS
OMAHA EPPLEY   MOSUNNY   84  58  40 NE8       30.08F
BLAIR          MOSUNNY   81  60  48 E6        30.09F
FREMONT        PTSUNNY   82  60  46 E5        30.10F
MILLARD        PTSUNNY   83  61  46 E8        30.08F
OFFUTT AFB     MOSUNNY   83  62  48 VRB6      30.08F
PLATTSMOUTH    PTSUNNY   81  62  52 NE7       30.09S
WAHOO          FAIR      83  59  44 E7        30.09F
$$


USA.gov is the U.S. government's official web portal to all federal, state and local government web resources and services.